Gillette, WY

8:41 PM MDT on May 24, 2015 (GMT -0600)
Gillette-Campbell County | | Change Station
CLOSE
Current Station
Airport
Location: Gillette,
Elevation: 4364 ft
Nearby Weather Stations

Elev 4364 ft 44.34 °N, 105.54 °W | Updated 51 minutes ago

Overcast
Overcast
50 °F
Feels Like 50 °F
N
8
Wind Variable Wind from NE

Today
High -- | Low -- °F
--% Chance of Precip.
Yesterday
High -- | Low -- °F
Precip. -- in
5:26 AM 8:33 PM
Waxing Crescent, 44% visible
Pressure 29.87 in
Visibility 10.0 miles
Clouds Few 900 ft
Mostly Cloudy 1400 ft
Overcast 5500 ft
Dew Point 47 °F
Humidity 89%
Rainfall 0.68 in
Snow Depth Not available.
UV 0 out of 12
Pollen 1.00 out of 12
Air Quality Not available.
Flu Activity Sporadic
METAR KGCC 250150Z AUTO 04007KT 10SM FEW009 BKN014 OVC055 10/08 A2991 RMK AO2 RAB04E13 SLP113 P0000 T01000083 $

More Conditions Fewer Conditions

Pressure 29.87 in
Visibility 10.0 miles
Clouds Few 900 ft
Mostly Cloudy 1400 ft
Overcast 5500 ft
Dew Point 47 °F
Humidity 89%
Rainfall 0.68 in
Snow Depth Not available.
UV 0 out of 12
Pollen 1.00 out of 12
Air Quality Not available.
Flu Activity Sporadic
METAR KGCC 250150Z AUTO 04007KT 10SM FEW009 BKN014 OVC055 10/08 A2991 RMK AO2 RAB04E13 SLP113 P0000 T01000083 $

More Conditions Fewer Conditions

10-Day Weather Forecast

Almanac

Astronomy

May. 24, 2015 Rise Set
Actual Time
Civil Twilight
Nautical Twilight
Astronomical Twilight
Moon
Length of Visible Light
Length of Day
Tomorrow will be .
, % of the Moon is Illuminated

Today's Extremes

State Highs State Lows

Community

WunderPhotos

Upload Photos

1,823,936 photos uploaded!

WunderBlogs® & News

Nearby

Air Quality

  Air Quality AQ Index Pollutant
Not available.

Snow Depth

Station Depth Elevation

Earthquake Activity

City Distance Mag. Time & Date
Minimum magnitude displayed is 2.5.

Coastal Water Temperatures

Place Temperature

Stations

Nearby Weather Stations

Station Location Temp. Windchill Dew Point Humidity Wind Precip. Elev Updated Type